contact: severine.martini@mio.osupytheas.fr, dominique.lefevre@mio.osupytheas.fr
Project:EMSO Ligure-ouest http://www.emso-fr.org/EMSO-France
Sensor Microcat Sea-Bird SBE37 SMP,  Serial 57510 
DOI : "https://doi.org/10.17882/97948" 
Title:EMSO Ligure Ouest : Data Bathybot capteur Microcat - deploiement 2023-04-28
Datetime,Profondeur,Latitude,Longitude,Temperature,Conductivite,Pression,Salinite
time,m,degree_north,degree_east,degree_C,S/m,db,PSU 
2023-09-28T00:00:49,2420,42.8014,5.9826,13.3193,4.60077,2453.574,38.4816
2023-09-28T00:03:49,2420,42.8014,5.9826,13.3050,4.60027,2453.596,38.4911
2023-09-28T00:06:49,2420,42.8014,5.9826,13.3003,4.60037,2453.559,38.4967
2023-09-28T00:09:49,2420,42.8014,5.9826,13.3150,4.60009,2453.551,38.4795
2023-09-28T00:12:49,2420,42.8014,5.9826,13.3110,4.60022,2453.537,38.4846
2023-09-28T00:15:49,2420,42.8014,5.9826,13.3069,4.60154,2453.537,38.5012
2023-09-28T00:18:49,2420,42.8014,5.9826,13.3136,4.60039,2453.574,38.4838
2023-09-28T00:21:49,2420,42.8014,5.9826,13.3149,4.60056,2453.574,38.4840
2023-09-28T00:24:49,2420,42.8014,5.9826,13.3164,4.60033,2453.574,38.4804
2023-09-28T00:27:49,2420,42.8014,5.9826,13.3065,4.60079,2453.551,38.4945
2023-09-28T00:30:49,2420,42.8014,5.9826,13.3296,4.60042,2453.537,38.4681
2023-09-28T00:33:49,2420,42.8014,5.9826,13.3179,4.60042,2453.559,38.4796
2023-09-28T00:36:49,2420,42.8014,5.9826,13.3101,4.60079,2453.514,38.4910
2023-09-28T00:39:49,2420,42.8014,5.9826,13.3189,4.60075,2453.559,38.4818
2023-09-28T00:42:49,2420,42.8014,5.9826,13.3147,4.60019,2453.559,38.4807
2023-09-28T00:45:49,2420,42.8014,5.9826,13.3093,4.59988,2453.559,38.4832
2023-09-28T00:48:49,2420,42.8014,5.9826,13.3010,4.60035,2453.537,38.4958
2023-09-28T00:51:49,2420,42.8014,5.9826,13.3145,4.60043,2453.559,38.4831
2023-09-28T00:54:49,2420,42.8014,5.9826,13.3101,4.60007,2453.537,38.4841
2023-09-28T00:57:49,2420,42.8014,5.9826,13.3029,4.60030,2453.551,38.4934
2023-09-28T01:00:49,2420,42.8014,5.9826,13.3130,4.60050,2453.537,38.4854
2023-09-28T01:03:49,2420,42.8014,5.9826,13.3057,4.60032,2453.574,38.4909
2023-09-28T01:06:49,2420,42.8014,5.9826,13.3011,4.60028,2453.537,38.4951
2023-09-28T01:09:49,2420,42.8014,5.9826,13.3054,4.60028,2453.514,38.4909
2023-09-28T01:12:49,2420,42.8014,5.9826,13.3053,4.60068,2453.537,38.4947
2023-09-28T01:15:49,2420,42.8014,5.9826,13.3057,4.59986,2453.559,38.4865
2023-09-28T01:18:49,2420,42.8014,5.9826,13.3023,4.60063,2453.537,38.4972
2023-09-28T01:21:49,2420,42.8014,5.9826,13.3016,4.59974,2453.528,38.4894
2023-09-28T01:24:49,2420,42.8014,5.9826,13.3067,4.60025,2453.559,38.4892
2023-09-28T01:27:49,2420,42.8014,5.9826,13.2993,4.59982,2453.551,38.4925
2023-09-28T01:30:49,2420,42.8014,5.9826,13.3008,4.60008,2453.544,38.4934
2023-09-28T01:33:49,2420,42.8014,5.9826,13.2987,4.59972,2453.582,38.4921
2023-09-28T01:36:49,2420,42.8014,5.9826,13.2976,4.59954,2453.559,38.4915
2023-09-28T01:39:49,2420,42.8014,5.9826,13.2977,4.59938,2453.574,38.4900
2023-09-28T01:42:49,2420,42.8014,5.9826,13.2982,4.59914,2453.582,38.4872
2023-09-28T01:45:49,2420,42.8014,5.9826,13.2974,4.59907,2453.559,38.4873
2023-09-28T01:48:49,2420,42.8014,5.9826,13.2983,4.59899,2453.559,38.4856
2023-09-28T01:51:49,2420,42.8014,5.9826,13.2977,4.59902,2453.559,38.4866
2023-09-28T01:54:49,2420,42.8014,5.9826,13.2977,4.59901,2453.596,38.4865
2023-09-28T01:57:49,2420,42.8014,5.9826,13.2971,4.59903,2453.537,38.4872
2023-09-28T02:00:49,2420,42.8014,5.9826,13.2971,4.59906,2453.559,38.4875
2023-09-28T02:03:49,2420,42.8014,5.9826,13.2984,4.59900,2453.559,38.4857
2023-09-28T02:06:49,2420,42.8014,5.9826,13.2974,4.59902,2453.582,38.4868
2023-09-28T02:09:49,2420,42.8014,5.9826,13.2971,4.59900,2453.582,38.4870
2023-09-28T02:12:49,2420,42.8014,5.9826,13.2973,4.59900,2453.544,38.4868
2023-09-28T02:15:49,2420,42.8014,5.9826,13.2975,4.59903,2453.596,38.4868
2023-09-28T02:18:49,2420,42.8014,5.9826,13.2975,4.59913,2453.559,38.4878
2023-09-28T02:21:49,2420,42.8014,5.9826,13.2970,4.59903,2453.559,38.4874
2023-09-28T02:24:49,2420,42.8014,5.9826,13.2972,4.59902,2453.559,38.4870
2023-09-28T02:27:49,2420,42.8014,5.9826,13.2973,4.59903,2453.582,38.4871
2023-09-28T02:30:49,2420,42.8014,5.9826,13.2967,4.59897,2453.559,38.4870
2023-09-28T02:33:49,2420,42.8014,5.9826,13.2969,4.59897,2453.604,38.4868
2023-09-28T02:36:49,2420,42.8014,5.9826,13.2972,4.59897,2453.559,38.4866
2023-09-28T02:39:49,2420,42.8014,5.9826,13.2972,4.59897,2453.582,38.4865
2023-09-28T02:42:49,2420,42.8014,5.9826,13.2975,4.59897,2453.582,38.4862
2023-09-28T02:45:49,2420,42.8014,5.9826,13.2974,4.59897,2453.604,38.4863
2023-09-28T02:48:49,2420,42.8014,5.9826,13.2975,4.59897,2453.559,38.4863
2023-09-28T02:51:49,2420,42.8014,5.9826,13.2970,4.59897,2453.619,38.4867
2023-09-28T02:54:49,2420,42.8014,5.9826,13.2972,4.59899,2453.627,38.4867
2023-09-28T02:57:49,2420,42.8014,5.9826,13.2989,4.59899,2453.604,38.4850
2023-09-28T03:00:49,2420,42.8014,5.9826,13.2978,4.59899,2453.604,38.4862
2023-09-28T03:03:49,2420,42.8014,5.9826,13.2974,4.59902,2453.604,38.4868
2023-09-28T03:06:49,2420,42.8014,5.9826,13.2978,4.59901,2453.627,38.4864
2023-09-28T03:09:49,2420,42.8014,5.9826,13.2976,4.59901,2453.604,38.4865
2023-09-28T03:12:49,2420,42.8014,5.9826,13.2972,4.59906,2453.627,38.4874
2023-09-28T03:15:49,2420,42.8014,5.9826,13.2977,4.59900,2453.627,38.4864
2023-09-28T03:18:49,2420,42.8014,5.9826,13.2982,4.59900,2453.627,38.4859
2023-09-28T03:21:49,2420,42.8014,5.9826,13.2978,4.59899,2453.604,38.4862
2023-09-28T03:24:49,2420,42.8014,5.9826,13.2975,4.59898,2453.604,38.4864
2023-09-28T03:27:49,2420,42.8014,5.9826,13.2978,4.59900,2453.641,38.4862
2023-09-28T03:30:49,2420,42.8014,5.9826,13.2975,4.59899,2453.604,38.4865
2023-09-28T03:33:49,2420,42.8014,5.9826,13.2973,4.59900,2453.627,38.4867
2023-09-28T03:36:49,2420,42.8014,5.9826,13.2979,4.59900,2453.649,38.4861
2023-09-28T03:39:49,2420,42.8014,5.9826,13.2973,4.59899,2453.627,38.4866
2023-09-28T03:42:49,2420,42.8014,5.9826,13.2989,4.59900,2453.627,38.4851
2023-09-28T03:45:49,2420,42.8014,5.9826,13.2971,4.59900,2453.627,38.4869
2023-09-28T03:48:49,2420,42.8014,5.9826,13.2996,4.59901,2453.649,38.4846
2023-09-28T03:51:49,2420,42.8014,5.9826,13.2987,4.59902,2453.612,38.4855
2023-09-28T03:54:49,2420,42.8014,5.9826,13.2980,4.59901,2453.649,38.4861
2023-09-28T03:57:49,2420,42.8014,5.9826,13.2984,4.59903,2453.649,38.4859
2023-09-28T04:00:49,2420,42.8014,5.9826,13.2981,4.59902,2453.649,38.4861
2023-09-28T04:03:49,2420,42.8014,5.9826,13.2979,4.59902,2453.635,38.4863
2023-09-28T04:06:49,2420,42.8014,5.9826,13.2986,4.59903,2453.649,38.4856
2023-09-28T04:09:49,2420,42.8014,5.9826,13.2974,4.59902,2453.687,38.4868
2023-09-28T04:12:49,2420,42.8014,5.9826,13.2974,4.59901,2453.672,38.4867
2023-09-28T04:15:49,2420,42.8014,5.9826,13.2973,4.59901,2453.649,38.4868
2023-09-28T04:18:49,2420,42.8014,5.9826,13.2992,4.59903,2453.657,38.4851
2023-09-28T04:21:49,2420,42.8014,5.9826,13.2979,4.59902,2453.672,38.4862
2023-09-28T04:24:49,2420,42.8014,5.9826,13.2976,4.59904,2453.635,38.4868
2023-09-28T04:27:49,2420,42.8014,5.9826,13.2979,4.59903,2453.649,38.4863
2023-09-28T04:30:50,2420,42.8014,5.9826,13.2975,4.59903,2453.695,38.4868
2023-09-28T04:33:49,2420,42.8014,5.9826,13.2979,4.59903,2453.672,38.4864
2023-09-28T04:36:49,2420,42.8014,5.9826,13.2978,4.59904,2453.657,38.4866
2023-09-28T04:39:49,2420,42.8014,5.9826,13.2976,4.59906,2453.672,38.4869
2023-09-28T04:42:49,2420,42.8014,5.9826,13.2979,4.59905,2453.695,38.4865
2023-09-28T04:45:49,2420,42.8014,5.9826,13.2981,4.59906,2453.695,38.4865
2023-09-28T04:48:49,2420,42.8014,5.9826,13.3006,4.59908,2453.717,38.4842
2023-09-28T04:51:49,2420,42.8014,5.9826,13.2985,4.59909,2453.672,38.4863
2023-09-28T04:54:49,2420,42.8014,5.9826,13.2988,4.59910,2453.672,38.4861
2023-09-28T04:57:49,2420,42.8014,5.9826,13.2985,4.59911,2453.695,38.4865
2023-09-28T05:00:49,2420,42.8014,5.9826,13.2985,4.59915,2453.695,38.4869
2023-09-28T05:03:49,2420,42.8014,5.9826,13.2985,4.59927,2453.695,38.4881
2023-09-28T05:06:49,2420,42.8014,5.9826,13.2985,4.59952,2453.709,38.4904
2023-09-28T05:09:49,2420,42.8014,5.9826,13.2986,4.59971,2453.672,38.4921
2023-09-28T05:12:49,2420,42.8014,5.9826,13.2980,4.59990,2453.732,38.4945
2023-09-28T05:15:49,2420,42.8014,5.9826,13.2985,4.59972,2453.709,38.4923
2023-09-28T05:18:49,2420,42.8014,5.9826,13.2982,4.59980,2453.702,38.4933
2023-09-28T05:21:49,2420,42.8014,5.9826,13.2988,4.59989,2453.695,38.4937
2023-09-28T05:24:49,2420,42.8014,5.9826,13.3004,4.59978,2453.732,38.4910
2023-09-28T05:27:49,2420,42.8014,5.9826,13.3026,4.59953,2453.695,38.4864
2023-09-28T05:30:49,2420,42.8014,5.9826,13.3152,4.59999,2453.717,38.4784
2023-09-28T05:33:49,2420,42.8014,5.9826,13.3107,4.59997,2453.717,38.4825
2023-09-28T05:36:49,2420,42.8014,5.9826,13.3074,4.59985,2453.695,38.4846
2023-09-28T05:39:49,2420,42.8014,5.9826,13.3067,4.59988,2453.717,38.4857
2023-09-28T05:42:49,2420,42.8014,5.9826,13.3117,4.59976,2453.717,38.4796
2023-09-28T05:45:49,2420,42.8014,5.9826,13.3169,4.59961,2453.695,38.4731
2023-09-28T05:48:49,2420,42.8014,5.9826,13.3157,4.59964,2453.672,38.4745
2023-09-28T05:51:49,2420,42.8014,5.9826,13.3408,4.59971,2453.732,38.4502
2023-09-28T05:54:49,2420,42.8014,5.9826,13.3227,4.59989,2453.717,38.4699
2023-09-28T05:57:49,2420,42.8014,5.9826,13.3208,4.59969,2453.717,38.4699
2023-09-28T06:00:49,2420,42.8014,5.9826,13.3197,4.59971,2453.717,38.4712
2023-09-28T06:03:49,2420,42.8014,5.9826,13.3165,4.59976,2453.732,38.4748
2023-09-28T06:06:49,2420,42.8014,5.9826,13.3125,4.59991,2453.695,38.4802
2023-09-28T06:09:49,2420,42.8014,5.9826,13.3141,4.59990,2453.732,38.4784
2023-09-28T06:12:49,2420,42.8014,5.9826,13.3177,4.59988,2453.695,38.4748
2023-09-28T06:15:49,2420,42.8014,5.9826,13.3238,4.59985,2453.732,38.4684
2023-09-28T06:18:49,2420,42.8014,5.9826,13.3203,4.59985,2453.717,38.4719
2023-09-28T06:21:49,2420,42.8014,5.9826,13.3287,4.59974,2453.695,38.4625
2023-09-28T06:24:49,2420,42.8014,5.9826,13.3236,4.59971,2453.732,38.4673
2023-09-28T06:27:49,2420,42.8014,5.9826,13.3257,4.59970,2453.709,38.4651
2023-09-28T06:30:49,2420,42.8014,5.9826,13.3248,4.59960,2453.717,38.4651
2023-09-28T06:33:49,2420,42.8014,5.9826,13.3208,4.59977,2453.754,38.4706
2023-09-28T06:36:49,2420,42.8014,5.9826,13.3202,4.59971,2453.732,38.4707
2023-09-28T06:39:49,2420,42.8014,5.9826,13.3101,4.59965,2453.732,38.4801
2023-09-28T06:42:49,2420,42.8014,5.9826,13.3166,4.59985,2453.732,38.4756
2023-09-28T06:45:49,2420,42.8014,5.9826,13.3589,4.59971,2453.695,38.4323
2023-09-28T06:48:49,2420,42.8014,5.9826,13.3254,4.59973,2453.717,38.4656
2023-09-28T06:51:49,2420,42.8014,5.9826,13.3426,4.59996,2453.709,38.4508
2023-09-28T06:54:49,2420,42.8014,5.9826,13.3305,4.59975,2453.709,38.4609
2023-09-28T06:57:49,2420,42.8014,5.9826,13.3123,4.59990,2453.709,38.4803
2023-09-28T07:00:50,2420,42.8014,5.9826,13.3301,4.59991,2453.695,38.4627
2023-09-28T07:03:49,2420,42.8014,5.9826,13.3289,4.59998,2453.717,38.4646
2023-09-28T07:06:49,2420,42.8014,5.9826,13.3154,4.59973,2453.732,38.4756
2023-09-28T07:09:49,2420,42.8014,5.9826,13.3139,4.60002,2453.732,38.4798
2023-09-28T07:12:49,2420,42.8014,5.9826,13.3052,4.60009,2453.732,38.4891
2023-09-28T07:15:49,2420,42.8014,5.9826,13.2985,4.60039,2453.709,38.4987
2023-09-28T07:18:49,2420,42.8014,5.9826,13.3295,4.60036,2453.732,38.4676
2023-09-28T07:21:49,2420,42.8014,5.9826,13.3472,4.60005,2453.680,38.4471
2023-09-28T07:24:49,2420,42.8014,5.9826,13.3225,4.60002,2453.709,38.4713
2023-09-28T07:27:49,2420,42.8014,5.9826,13.3373,4.60013,2453.672,38.4577
2023-09-28T07:30:49,2420,42.8014,5.9826,13.3010,4.59982,2453.709,38.4908
2023-09-28T07:33:49,2420,42.8014,5.9826,13.3018,4.60032,2453.695,38.4947
2023-09-28T07:36:49,2420,42.8014,5.9826,13.2985,4.60019,2453.687,38.4968
2023-09-28T07:39:49,2420,42.8014,5.9826,13.3058,4.60026,2453.717,38.4901
2023-09-28T07:42:49,2420,42.8014,5.9826,13.3184,4.60012,2453.695,38.4763
2023-09-28T07:45:49,2420,42.8014,5.9826,13.3540,4.60022,2453.709,38.4420
2023-09-28T07:48:49,2420,42.8014,5.9826,13.3600,4.60050,2453.672,38.4387
2023-09-28T07:51:49,2420,42.8014,5.9826,13.3471,4.60041,2453.672,38.4506
2023-09-28T07:54:49,2420,42.8014,5.9826,13.3442,4.60007,2453.709,38.4503
2023-09-28T07:57:49,2420,42.8014,5.9826,13.3023,4.60038,2453.672,38.4948
2023-09-28T08:00:49,2420,42.8014,5.9826,13.4081,4.59991,2453.687,38.3855
2023-09-28T08:03:49,2420,42.8014,5.9826,13.3488,4.60025,2453.709,38.4473
2023-09-28T08:06:49,2420,42.8014,5.9826,13.3448,4.60013,2453.672,38.4502
2023-09-28T08:09:49,2420,42.8014,5.9826,13.3318,4.60027,2453.709,38.4644
2023-09-28T08:12:49,2420,42.8014,5.9826,13.3002,4.60029,2453.649,38.4960
2023-09-28T08:15:49,2420,42.8014,5.9826,13.3033,4.60008,2453.672,38.4910
2023-09-28T08:18:49,2420,42.8014,5.9826,13.3194,4.60031,2453.672,38.4771
2023-09-28T08:21:49,2420,42.8014,5.9826,13.3036,4.60043,2453.709,38.4939
2023-09-28T08:24:49,2420,42.8014,5.9826,13.3049,4.60073,2453.649,38.4956
2023-09-28T08:27:49,2420,42.8014,5.9826,13.3724,4.60020,2453.695,38.4235
2023-09-28T08:30:49,2420,42.8014,5.9826,13.3088,4.60058,2453.687,38.4902
2023-09-28T08:33:49,2420,42.8014,5.9826,13.4039,4.60064,2453.641,38.3966
2023-09-28T08:36:49,2420,42.8014,5.9826,13.3090,4.60133,2453.649,38.4971
2023-09-28T08:39:49,2420,42.8014,5.9826,13.3123,4.60008,2453.627,38.4820
2023-09-28T08:42:49,2420,42.8014,5.9826,13.3079,4.60005,2453.678,38.4860
2023-09-28T08:45:49,2420,42.8014,5.9826,13.3388,4.60022,2453.641,38.4571
2023-09-28T08:48:49,2420,42.8014,5.9826,13.3123,4.60162,2453.627,38.4966
2023-09-28T08:51:49,2420,42.8014,5.9826,13.3741,4.60229,2453.627,38.4417
2023-09-28T08:54:49,2420,42.8014,5.9826,13.3076,4.60058,2453.641,38.4914
2023-09-28T08:57:49,2420,42.8014,5.9826,13.3749,4.60191,2453.649,38.4372
2023-09-28T09:00:49,2420,42.8014,5.9826,13.3460,4.60179,2453.641,38.4647
2023-09-28T09:03:49,2420,42.8014,5.9826,13.3209,4.60174,2453.641,38.4891
2023-09-28T09:06:49,2420,42.8014,5.9826,13.3448,4.60067,2453.641,38.4553
2023-09-28T09:09:49,2420,42.8014,5.9826,13.3062,4.60578,2453.619,38.5419
2023-09-28T09:12:49,2420,42.8014,5.9826,13.2975,4.60171,2453.664,38.5121
2023-09-28T09:15:49,2420,42.8014,5.9826,13.2990,4.60144,2453.641,38.5080
2023-09-28T09:18:49,2420,42.8014,5.9826,13.2975,4.60493,2453.641,38.5425
2023-09-28T09:21:49,2420,42.8014,5.9826,13.2976,4.60141,2453.641,38.5092
2023-09-28T09:24:49,2420,42.8014,5.9826,13.2978,4.60567,2453.664,38.5491
2023-09-28T09:27:49,2420,42.8014,5.9826,13.2981,4.60137,2453.627,38.5083
2023-09-28T09:30:49,2420,42.8014,5.9826,13.2973,4.46566,2453.641,37.2310
2023-09-28T09:33:49,2420,42.8014,5.9826,13.3099,4.36578,2453.619,36.2832
2023-09-28T09:36:49,2420,42.8014,5.9826,13.3026,4.48584,2453.582,37.4156
2023-09-28T09:39:49,2420,42.8014,5.9826,13.2993,4.51939,2453.641,37.7343
2023-09-28T09:42:49,2420,42.8014,5.9826,13.2979,4.47774,2453.559,37.3440
2023-09-28T09:45:49,2420,42.8014,5.9826,13.3313,4.47778,2453.619,37.3122
2023-09-28T09:48:49,2420,42.8014,5.9826,13.3586,4.47949,2453.596,37.3020
2023-09-28T09:51:49,2420,42.8014,5.9826,13.3100,4.47996,2453.596,37.3531
2023-09-28T09:54:49,2420,42.8014,5.9826,13.3056,4.48420,2453.619,37.3972
2023-09-28T09:57:49,2420,42.8014,5.9826,13.3011,4.48349,2453.596,37.3950
2023-09-28T10:00:49,2420,42.8014,5.9826,13.3134,4.48646,2453.604,37.4109
2023-09-28T10:03:49,2420,42.8014,5.9826,13.2976,4.48739,2453.627,37.4349
2023-09-28T10:06:49,2420,42.8014,5.9826,13.3858,4.48827,2453.619,37.3583
2023-09-28T10:09:49,2420,42.8014,5.9826,13.3899,4.48512,2453.582,37.3248
2023-09-28T10:12:49,2420,42.8014,5.9826,13.3844,4.48709,2453.619,37.3486
2023-09-28T10:15:49,2420,42.8014,5.9826,13.3074,4.48166,2453.574,37.3716
2023-09-28T10:18:49,2420,42.8014,5.9826,13.2982,4.48469,2453.574,37.4091
2023-09-28T10:21:49,2420,42.8014,5.9826,13.3033,4.48581,2453.596,37.4146
2023-09-28T10:24:49,2420,42.8014,5.9826,13.3405,4.48853,2453.582,37.4043
2023-09-28T10:27:49,2420,42.8014,5.9826,13.3143,4.48276,2453.596,37.3753
2023-09-28T10:30:50,2420,42.8014,5.9826,13.3286,4.48496,2453.596,37.3822
2023-09-28T10:33:49,2420,42.8014,5.9826,13.3788,4.48812,2453.596,37.3636
2023-09-28T10:36:49,2420,42.8014,5.9826,13.3752,4.48820,2453.574,37.3677
2023-09-28T10:39:49,2420,42.8014,5.9826,13.3027,4.47958,2453.574,37.3566
2023-09-28T10:42:49,2420,42.8014,5.9826,13.4153,4.48398,2453.574,37.2897
2023-09-28T10:45:49,2420,42.8014,5.9826,13.3132,4.48428,2453.596,37.3907
2023-09-28T10:48:49,2420,42.8014,5.9826,13.3670,4.48510,2453.574,37.3466
2023-09-28T10:51:49,2420,42.8014,5.9826,13.4188,4.48465,2453.611,37.2926
2023-09-28T10:54:49,2420,42.8014,5.9826,13.3926,4.48711,2453.596,37.3408
2023-09-28T10:57:49,2420,42.8014,5.9826,13.3287,4.48165,2453.596,37.3511
2023-09-28T11:00:49,2420,42.8014,5.9826,13.3335,4.48397,2453.619,37.3682
2023-09-28T11:03:49,2420,42.8014,5.9826,13.3665,4.48665,2453.596,37.3616
2023-09-28T11:06:49,2420,42.8014,5.9826,13.3395,4.48756,2453.559,37.3961
2023-09-28T11:09:49,2420,42.8014,5.9826,13.3470,4.48775,2453.574,37.3907
2023-09-28T11:12:49,2420,42.8014,5.9826,13.3123,4.48169,2453.551,37.3672
2023-09-28T11:15:49,2420,42.8014,5.9826,13.3239,4.48067,2453.574,37.3464
2023-09-28T11:18:49,2420,42.8014,5.9826,13.3059,4.48347,2453.551,37.3901
2023-09-28T11:21:49,2420,42.8014,5.9826,13.3183,4.48067,2453.582,37.3519
2023-09-28T11:24:49,2420,42.8014,5.9826,13.3125,4.48317,2453.582,37.3810
2023-09-28T11:27:49,2420,42.8014,5.9826,13.3029,4.48389,2453.596,37.3969
2023-09-28T11:30:49,2420,42.8014,5.9826,13.3557,4.48430,2453.559,37.3500
2023-09-28T11:33:49,2420,42.8014,5.9826,13.3002,4.48083,2453.559,37.3708
2023-09-28T11:36:49,2420,42.8014,5.9826,13.2977,4.48507,2453.559,37.4131
2023-09-28T11:39:49,2420,42.8014,5.9826,13.2975,4.48684,2453.582,37.4299
2023-09-28T11:42:49,2420,42.8014,5.9826,13.3694,4.48602,2453.491,37.3530
2023-09-28T11:45:49,2420,42.8014,5.9826,13.2997,4.49412,2453.528,37.4962
2023-09-28T11:48:49,2420,42.8014,5.9826,13.2973,4.48845,2453.559,37.4453
2023-09-28T11:51:49,2420,42.8014,5.9826,13.2977,4.49017,2453.551,37.4610
2023-09-28T11:54:49,2420,42.8014,5.9826,13.2991,4.48383,2453.537,37.4001
2023-09-28T11:57:49,2420,42.8014,5.9826,13.2978,4.48537,2453.514,37.4159
2023-09-28T12:00:49,2420,42.8014,5.9826,13.2973,4.48668,2453.528,37.4286
2023-09-28T12:03:49,2420,42.8014,5.9826,13.2982,4.48763,2453.559,37.4367
2023-09-28T12:06:49,2420,42.8014,5.9826,13.2972,4.48142,2453.514,37.3793
2023-09-28T12:09:49,2420,42.8014,5.9826,13.2985,4.48736,2453.537,37.4338
2023-09-28T12:12:49,2420,42.8014,5.9826,13.2973,4.47468,2453.537,37.3158
2023-09-28T12:15:49,2420,42.8014,5.9826,13.2974,4.47398,2453.514,37.3091
2023-09-28T12:18:49,2420,42.8014,5.9826,13.2977,4.47866,2453.537,37.3529
2023-09-28T12:21:49,2420,42.8014,5.9826,13.3454,4.48760,2453.537,37.3908
2023-09-28T12:24:49,2420,42.8014,5.9826,13.3003,4.48639,2453.537,37.4230
2023-09-28T12:27:49,2420,42.8014,5.9826,13.2989,4.48590,2453.537,37.4197
2023-09-28T12:30:49,2420,42.8014,5.9826,13.3140,4.48815,2453.514,37.4263
2023-09-28T12:33:49,2420,42.8014,5.9826,13.3118,4.48012,2453.559,37.3529
2023-09-28T12:36:49,2420,42.8014,5.9826,13.3694,4.48609,2453.514,37.3536
2023-09-28T12:39:49,2420,42.8014,5.9826,13.3066,4.48642,2453.514,37.4171
2023-09-28T12:42:49,2420,42.8014,5.9826,13.3129,4.48733,2453.528,37.4197
2023-09-28T12:45:49,2420,42.8014,5.9826,13.3026,4.49006,2453.537,37.4553
2023-09-28T12:48:49,2420,42.8014,5.9826,13.3102,4.48924,2453.559,37.4403
2023-09-28T12:51:49,2420,42.8014,5.9826,13.3268,4.48793,2453.514,37.4118
2023-09-28T12:54:49,2420,42.8014,5.9826,13.3232,4.48551,2453.537,37.3927
2023-09-28T12:57:49,2420,42.8014,5.9826,13.3276,4.48455,2453.528,37.3794
2023-09-28T13:00:50,2420,42.8014,5.9826,13.3047,4.48469,2453.528,37.4028
2023-09-28T13:03:49,2420,42.8014,5.9826,13.3080,4.48900,2453.551,37.4400
2023-09-28T13:06:49,2420,42.8014,5.9826,13.3392,4.48666,2453.537,37.3880
2023-09-28T13:09:49,2420,42.8014,5.9826,13.3169,4.48514,2453.551,37.3952
2023-09-28T13:12:49,2420,42.8014,5.9826,13.3037,4.48450,2453.559,37.4020
2023-09-28T13:15:49,2420,42.8014,5.9826,13.3323,4.48551,2453.574,37.3839
2023-09-28T13:18:49,2420,42.8014,5.9826,13.3427,4.48744,2453.551,37.3919
2023-09-28T13:21:49,2420,42.8014,5.9826,13.3023,4.48844,2453.528,37.4403
2023-09-28T13:24:49,2420,42.8014,5.9826,13.3075,4.48179,2453.514,37.3728
2023-09-28T13:27:49,2420,42.8014,5.9826,13.3029,4.47872,2453.559,37.3484
2023-09-28T13:30:49,2420,42.8014,5.9826,13.3105,4.47980,2453.537,37.3512
2023-09-28T13:33:49,2420,42.8014,5.9826,13.3046,4.47897,2453.537,37.3491
2023-09-28T13:36:49,2420,42.8014,5.9826,13.3027,4.47979,2453.559,37.3586
2023-09-28T13:39:49,2420,42.8014,5.9826,13.3088,4.47649,2453.559,37.3217
2023-09-28T13:42:49,2420,42.8014,5.9826,13.3010,4.47896,2453.537,37.3525
2023-09-28T13:45:49,2420,42.8014,5.9826,13.3041,4.47690,2453.551,37.3301
2023-09-28T13:48:49,2420,42.8014,5.9826,13.3030,4.47848,2453.574,37.3460
2023-09-28T13:51:49,2420,42.8014,5.9826,13.3060,4.47378,2453.559,37.2990
2023-09-28T13:54:49,2420,42.8014,5.9826,13.3011,4.47355,2453.537,37.3015
2023-09-28T13:57:49,2420,42.8014,5.9826,13.3032,4.48192,2453.559,37.3781
2023-09-28T14:00:49,2420,42.8014,5.9826,13.3076,4.49049,2453.559,37.4544
2023-09-28T14:03:49,2420,42.8014,5.9826,13.3081,4.49108,2453.537,37.4595
2023-09-28T14:06:49,2420,42.8014,5.9826,13.3013,4.49153,2453.559,37.4702
2023-09-28T14:09:49,2420,42.8014,5.9826,13.3007,4.49157,2453.596,37.4713
2023-09-28T14:12:49,2420,42.8014,5.9826,13.3032,4.49221,2453.537,37.4749
2023-09-28T14:15:49,2420,42.8014,5.9826,13.3058,4.49193,2453.559,37.4698
2023-09-28T14:18:49,2420,42.8014,5.9826,13.3040,4.48801,2453.574,37.4346
2023-09-28T14:21:49,2420,42.8014,5.9826,13.2980,4.48854,2453.582,37.4453
2023-09-28T14:24:49,2420,42.8014,5.9826,13.3125,4.48900,2453.559,37.4357
2023-09-28T14:27:50,2420,42.8014,5.9826,13.3015,4.48941,2453.582,37.4502
2023-09-28T14:30:49,2420,42.8014,5.9826,13.3026,4.48410,2453.596,37.3993
2023-09-28T14:33:49,2420,42.8014,5.9826,13.3054,4.48103,2453.596,37.3676
2023-09-28T14:36:49,2420,42.8014,5.9826,13.3013,4.47906,2453.627,37.3530
2023-09-28T14:39:49,2420,42.8014,5.9826,13.3102,4.47851,2453.596,37.3393
2023-09-28T14:42:49,2420,42.8014,5.9826,13.3015,4.48573,2453.604,37.4157
2023-09-28T14:45:49,2420,42.8014,5.9826,13.3053,4.48611,2453.604,37.4155
2023-09-28T14:48:49,2420,42.8014,5.9826,13.3052,4.48465,2453.582,37.4019
2023-09-28T14:51:49,2420,42.8014,5.9826,13.3016,4.48137,2453.604,37.3744
2023-09-28T14:54:49,2420,42.8014,5.9826,13.2997,4.48679,2453.627,37.4272
2023-09-28T14:57:49,2420,42.8014,5.9826,13.3024,4.48726,2453.590,37.4291
2023-09-28T15:00:50,2420,42.8014,5.9826,13.3026,4.48713,2453.604,37.4277
2023-09-28T15:03:49,2420,42.8014,5.9826,13.3011,4.49279,2453.627,37.4823
2023-09-28T15:06:49,2420,42.8014,5.9826,13.3017,4.49318,2453.627,37.4854
2023-09-28T15:09:49,2420,42.8014,5.9826,13.3045,4.49042,2453.649,37.4567
2023-09-28T15:12:49,2420,42.8014,5.9826,13.3066,4.48783,2453.672,37.4303
2023-09-28T15:15:49,2420,42.8014,5.9826,13.3079,4.48519,2453.672,37.4043
2023-09-28T15:18:49,2420,42.8014,5.9826,13.3027,4.48326,2453.627,37.3912
2023-09-28T15:21:49,2420,42.8014,5.9826,13.3011,4.49250,2453.627,37.4796
2023-09-28T15:24:49,2420,42.8014,5.9826,13.3006,4.48857,2453.649,37.4431
2023-09-28T15:27:49,2420,42.8014,5.9826,13.3076,4.48619,2453.672,37.4141
2023-09-28T15:30:49,2420,42.8014,5.9826,13.3039,4.48508,2453.672,37.4072
2023-09-28T15:33:49,2420,42.8014,5.9826,13.3013,4.46080,2453.695,37.1816
2023-09-28T15:36:49,2420,42.8014,5.9826,13.3012,4.49291,2453.649,37.4833
2023-09-28T15:39:49,2420,42.8014,5.9826,13.3003,4.49419,2453.672,37.4962
2023-09-28T15:42:49,2420,42.8014,5.9826,13.3010,4.40574,2453.672,36.6656
2023-09-28T15:45:49,2420,42.8014,5.9826,13.2999,4.39316,2453.672,36.5488
2023-09-28T15:48:49,2420,42.8014,5.9826,13.3006,4.39486,2453.695,36.5640
2023-09-28T15:51:49,2420,42.8014,5.9826,13.3002,4.39453,2453.672,36.5613
2023-09-28T15:54:49,2420,42.8014,5.9826,13.3003,4.39402,2453.695,36.5565
2023-09-28T15:57:49,2420,42.8014,5.9826,13.3000,4.39421,2453.717,36.5585
2023-09-28T16:00:49,2420,42.8014,5.9826,13.2993,4.39421,2453.717,36.5592
2023-09-28T16:03:49,2420,42.8014,5.9826,13.2997,4.39435,2453.672,36.5601